Weather History for Le Puy, France

Change the Weather History Date:

Sunday, December 9, 2012

  Actual Average Record
Temperature  
Mean Temperature 24 °F -  
Max Temperature 32 °F - - ()
Min Temperature 17 °F - - ()
Degree Days  
Heating Degree Days 40    
Moisture  
Dew Point 20 °F    
Average Humidity 76    
Maximum Humidity 100    
Minimum Humidity 58    
Precipitation  
Precipitation 0.00 in - - ()
Sea Level Pressure  
Sea Level Pressure 30.22 in    
Wind  
Wind Speed 7 mph ()    
Max Wind Speed 14 mph    
Max Gust Speed -    
Visibility 6.6 miles    
Events      
T = Trace of Precipitation, MM = Missing Value Source: Averaged Metar Reports

Daily Weather History Graph

Daily Weather History Graph

Search for Another Location

Airport:

Trip Planner

Search our weather history database for the weather conditions in past years. The results will help you decide how hot, cold, wet, or windy it might be!

Date:

Astronomy

Dec. 09, 2012 Rise Set
Actual Time 8:11 AM CET 5:02 PM CET
Civil Twilight 7:38 AM CET 5:36 PM CET
Nautical Twilight 7:01 AM CET 6:13 PM CET
Astronomical Twilight 6:25 AM CET 6:49 PM CET
Moon 3:17 AM CET (12/9) 2:07 PM CET (12/9)
Length of Visible Light 9h 58m
Length of Day
8h 51m
Waning Crescent, 21% of the Moon is Illuminated
Dec 9
Waning Crescent
Dec 13
New
Dec 20
First Quarter
Dec 28
Full
Jan 5
Last Quarter

Hourly Weather History & Observations

Time (CET) Temp. Windchill Dew Point Humidity Pressure Visibility Wind Dir Wind Speed Gust Speed Precip Events Conditions
12:00 AM 26.6 °F 18.2 °F 21.2 °F 80% 30.24 in 6.2 mi North 8.1 mph - N/A   Overcast
12:30 AM 26.6 °F 17.5 °F 19.4 °F 74% 30.24 in 6.2 mi NNW 9.2 mph - N/A   Overcast
1:00 AM 26 °F - 20 °F 69%  in 12 mi North 13.8 mph - -   Clear
1:00 AM 26.6 °F 15.2 °F 19.4 °F 74% 30.24 in 6.2 mi North 13.8 mph - N/A   Overcast
1:30 AM 26.6 °F 18.2 °F 21.2 °F 80% 30.24 in 6.2 mi North 8.1 mph - N/A   Overcast
2:30 AM 26.6 °F 16.8 °F 19.4 °F 74% 30.24 in 6.2 mi North 10.4 mph - N/A   Overcast
3:00 AM 26.6 °F 16.8 °F 19.4 °F 74% 30.27 in 6.2 mi North 10.4 mph - N/A   Overcast
3:30 AM 26.6 °F 17.5 °F 21.2 °F 80% 30.27 in 6.2 mi North 9.2 mph - N/A   Overcast
4:30 AM 26.6 °F 16.8 °F 19.4 °F 74% 30.27 in 6.2 mi North 10.4 mph - N/A   Overcast
5:00 AM 26.6 °F 21.2 °F 21.2 °F 80% 30.24 in 6.2 mi NW 4.6 mph - N/A   Overcast
6:00 AM 26.6 °F 16.8 °F 21.2 °F 80% 30.24 in 6.2 mi NW 10.4 mph - N/A   Overcast
6:30 AM 26.6 °F 20.0 °F 21.2 °F 80% 30.27 in 6.2 mi NNW 5.8 mph - N/A   Overcast
7:00 AM 27 °F - 20 °F 65%  in 12 mi NNW 6.9 mph - -   Clear
7:00 AM 26.6 °F 19.1 °F 19.4 °F 74% 30.27 in 6.2 mi NNW 6.9 mph - N/A   Overcast
7:30 AM 26.6 °F 18.2 °F 19.4 °F 74% 30.27 in 6.2 mi NNW 8.1 mph - N/A   Overcast
8:00 AM 26.6 °F 20.0 °F 19.4 °F 74% 30.27 in 6.2 mi NW 5.8 mph - N/A   Overcast
8:30 AM 26.6 °F 18.2 °F 19.4 °F 74% 30.27 in 6.2 mi NW 8.1 mph - N/A   Overcast
9:00 AM 26.6 °F 18.2 °F 21.2 °F 80% 30.27 in 6.2 mi NW 8.1 mph - N/A   Overcast
9:30 AM 28.4 °F 20.4 °F 19.4 °F 69% 30.30 in 6.2 mi NW 8.1 mph - N/A   Overcast
10:00 AM 28.4 °F 19.1 °F 19.4 °F 69% 30.27 in 6.2 mi NNW 10.4 mph - N/A   Overcast
10:30 AM 28.4 °F 20.4 °F 19.4 °F 69% 30.27 in 6.2 mi NW 8.1 mph - N/A   Mostly Cloudy
11:00 AM 28.4 °F 19.7 °F 21.2 °F 74% 30.27 in 6.2 mi NW 9.2 mph - N/A   Mostly Cloudy
11:30 AM 28.4 °F 19.7 °F 21.2 °F 74% 30.27 in 6.2 mi NNW 9.2 mph - N/A   Mostly Cloudy
12:00 PM 30.2 °F 22.6 °F 21.2 °F 69% 30.27 in 6.2 mi NW 8.1 mph - N/A   Mostly Cloudy
12:30 PM 30.2 °F 25.4 °F 21.2 °F 69% 30.24 in 6.2 mi NNW 4.6 mph - N/A   Mostly Cloudy
1:00 PM 30 °F - 21 °F 58%  in 12 mi NNW 5.8 mph - -   Clear
1:00 PM 30.2 °F 24.3 °F 21.2 °F 69% 30.24 in 6.2 mi NNW 5.8 mph - N/A   Scattered Clouds
1:30 PM 32.0 °F 26.4 °F 21.2 °F 64% 30.24 in 6.2 mi WNW 5.8 mph - N/A   Partly Cloudy
2:00 PM 32.0 °F 26.4 °F 21.2 °F 64% 30.21 in 6.2 mi NW 5.8 mph - N/A   Partly Cloudy
2:30 PM 32.0 °F 27.5 °F 21.2 °F 64% 30.21 in 6.2 mi West 4.6 mph - N/A   Unknown
3:00 PM 32.0 °F 26.4 °F 21.2 °F 64% 30.21 in 6.2 mi WNW 5.8 mph - N/A   Unknown
3:30 PM 32.0 °F - 21.2 °F 64% 30.18 in 6.2 mi Variable 2.3 mph - N/A   Unknown
4:00 PM 32.0 °F 27.5 °F 21.2 °F 64% 30.18 in 6.2 mi West 4.6 mph - N/A   Unknown
4:30 PM 30.2 °F - 21.2 °F 69% 30.18 in 6.2 mi Variable 2.3 mph - N/A   Unknown
5:00 PM 26.6 °F - 19.4 °F 74% 30.18 in 6.2 mi Calm Calm - N/A   Unknown
5:30 PM 24.8 °F - 19.4 °F 80% 30.18 in 6.2 mi Variable 2.3 mph - N/A   Unknown
6:00 PM 23.0 °F - 19.4 °F 86% 30.18 in 6.2 mi Variable 2.3 mph - N/A   Unknown
6:30 PM 21.2 °F 16.4 °F 17.6 °F 86% 30.18 in 6.2 mi SW 3.5 mph - N/A   Unknown
7:00 PM 21 °F - 17 °F 79%  in 9 mi WSW 1.2 mph - -   Clear
7:00 PM 21.2 °F - 17.6 °F 86% 30.18 in 6.2 mi Variable 1.2 mph - N/A   Unknown
7:30 PM 21.2 °F - 17.6 °F 86% 30.18 in 6.2 mi NW 2.3 mph - N/A   Unknown
8:00 PM 19.4 °F 14.3 °F 17.6 °F 93% 30.18 in 6.2 mi WSW 3.5 mph - N/A   Unknown
8:30 PM 19.4 °F 14.3 °F 15.8 °F 86% 30.18 in 5.6 mi WSW 3.5 mph - N/A   Unknown
9:00 PM 19.4 °F 14.3 °F 17.6 °F 93% 30.15 in 6.2 mi SSW 3.5 mph - N/A   Unknown
9:30 PM 19.4 °F - 15.8 °F 86% 30.15 in 6.2 mi Variable 1.2 mph - N/A   Unknown
10:00 PM 19.4 °F - 17.6 °F 93% 30.15 in 6.2 mi Calm Calm - N/A   Unknown
10:30 PM 17.6 °F - 17.6 °F 100% 30.15 in 5.6 mi Variable 2.3 mph - N/A   Unknown
11:00 PM 17.6 °F 12.3 °F 15.8 °F 93% 30.15 in 5.0 mi Variable 3.5 mph - N/A   Unknown
11:30 PM 19.4 °F 12.8 °F 17.6 °F 93% 30.15 in 6.2 mi SSW 4.6 mph - N/A   Unknown